Location: �mondeville
(49.4591°N, 1.3431°W)
Time: 04:31:28
(UTC+00:00)

Meteor 1-21 - Pass Details

Date: 22 October 2019
Orbit: 844 x 888 km, 81.2° (Epoch: 17 November)

Event Time Altitude Azimuth Distance (km) Brightness Sun altitude
Exits shadow 04:20:25 51° 249° (WSW) 1,063 4.3 -22.8°
Maximum altitude 04:21:20 57° 286° (WNW) 996 4.2 -22.6°
Drops below altitude 10° 04:26:56 10° 6° (N) 2,506 6.8 -21.7°
Sets 04:29:26 0° 10° (N) 3,453 7.6 -21.3°
